Starlink 5930

operational
NORAD ID: 55928 Int'l Des: 2023-037 Owner: SPXS Country: US Constellation: starlink
LEOCIRCULAR

About Starlink 5930

Description loading...

Live Position

Loading 3D Globe...

Upcoming Passes

Altitude History

Altitude vs Time

uPlot chart will show altitude changes over time

Two-Line Element Set

1 55928U 23037Q 25303.25883156 -.00000869 00000-0 -65030-4 0 9998
2 55928 69.9982 273.1629 0002518 269.9794 90.1076 14.98325903143955
Epoch: Oct 30, 2025 • Age: 19 hours

Current Status

Altitude 590.4 km
Velocity 7.56 km/s
Sub-Earth Point -52.67°S, 66.55°E
Launch Date Mar 17, 2023
Age 2.6 years
Type internet

Technical Details

Classification Payload
Mass 305.00 kg
Dry Mass 290.00 kg
Total Mass 305.00 kg
Length 0.20 m
Diameter 2.80 m
Span 9.00 m
Shape Box + pan
Manufacturer SPXS
Bus Type Starlink
Phase Status In Orbit
Owner/State SPXS/US

Large Constellations

Loading constellations...